Weather History for KAIA - September, 2014

Change the Weather History Date:

Thursday, September 4, 2014

  Actual Average Record
Temperature  
Mean Temperature 64 °F 65 °F  
Max Temperature 75 °F 81 °F 101 °F (1998)
Min Temperature 52 °F 48 °F 32 °F (2011)
Degree Days  
Heating Degree Days 1 3  
Month to date heating degree days 7 11  
Since 1 July heating degree days 44 48  
Cooling Degree Days 0 3  
Month to date cooling degree days 10 12  
Year to date cooling degree days 472 535  
Growing Degree Days 14 (Base 50)    
Moisture  
Dew Point 43 °F    
Average Humidity 53    
Maximum Humidity 77    
Minimum Humidity 29    
Precipitation  
Precipitation 0.04 in 0.06 in 1.10 in (1912)
Month to date precipitation 0.04 0.22  
Year to date precipitation 14.98 12.63  
Sea Level Pressure  
Sea Level Pressure 29.92 in    
Wind  
Wind Speed 12 mph (North)    
Max Wind Speed 23 mph    
Max Gust Speed 27 mph    
Visibility 10 miles    
Events Rain    
T = Trace of Precipitation, MM = Missing Value Source: NWS Daily Summary

Daily Weather History Graph

Daily Weather History Graph

Search for Another Location

Airport or City:

Trip Planner

Search our weather history database for the weather conditions in past years. The results will help you decide how hot, cold, wet, or windy it might be!

Date:

Astronomy

Sep. 04, 2014 Rise Set
Actual Time 6:19 AM MDT 7:19 PM MDT
Civil Twilight 5:51 AM MDT 7:48 PM MDT
Nautical Twilight 5:17 AM MDT 8:22 PM MDT
Astronomical Twilight 4:41 AM MDT 8:57 PM MDT
Moon 4:02 PM MDT (9/4) 1:09 AM MDT (9/4)
Length of Visible Light 13h 56m
Length of Day
12h 59m
Waxing Gibbous, 75% of the Moon is Illuminated
Sep 4
Waxing Gibbous
Sep 8
Full
Sep 15
Last Quarter
Sep 24
New
Oct 1
First Quarter

Hourly Weather History & Observations

Time (MDT) Temp. Dew Point Humidity Pressure Visibility Wind Dir Wind Speed Gust Speed Precip Events Conditions
12:53 AM 73.9 °F 42.1 °F 32% 29.57 in 10.0 mi North 17.3 mph - N/A   Clear
1:53 AM 64.9 °F 46.9 °F 52% 29.65 in 10.0 mi ESE 3.5 mph - N/A   Clear
2:53 AM 62.1 °F 48.0 °F 60% 29.68 in 10.0 mi North 10.4 mph - N/A   Clear
3:53 AM 61.0 °F 48.9 °F 64% 29.69 in 10.0 mi NNW 11.5 mph - N/A   Clear
4:53 AM 57.9 °F 48.9 °F 72% 29.74 in 10.0 mi North 11.5 mph - N/A   Clear
5:53 AM 55.4 °F 48.2 °F 77% 29.91 in 10.0 mi NNW 10.4 mph - N/A   Clear
6:53 AM 54.0 °F 46.9 °F 77% 29.83 in 10.0 mi NW 8.1 mph - N/A   Clear
7:53 AM 57.0 °F 42.1 °F 57% 29.87 in 10.0 mi North 12.7 mph - N/A   Clear
8:53 AM 59.0 °F 36.0 °F 42% 29.92 in 10.0 mi North 18.4 mph 26.5 mph N/A   Clear
9:53 AM 64.0 °F 37.9 °F 38% 29.94 in 10.0 mi North 18.4 mph 26.5 mph N/A   Clear
10:53 AM 66.9 °F 39.0 °F 36% 29.96 in 10.0 mi North 13.8 mph 20.7 mph N/A   Clear
11:53 AM 70.0 °F 39.9 °F 33% 29.94 in 10.0 mi NNE 16.1 mph 20.7 mph N/A   Clear
12:53 PM 71.1 °F 41.0 °F 34% 29.92 in 10.0 mi NE 11.5 mph - N/A   Clear
1:53 PM 72.0 °F 41.0 °F 33% 29.94 in 10.0 mi NE 8.1 mph - N/A   Clear
2:53 PM 73.0 °F 42.1 °F 33% 29.94 in 10.0 mi ENE 8.1 mph - N/A   Clear
3:53 PM 73.9 °F 43.0 °F 33% 29.94 in 10.0 mi NNW 13.8 mph 18.4 mph N/A   Clear
4:53 PM 73.0 °F 41.0 °F 31% 29.97 in 10.0 mi North 11.5 mph - N/A   Clear
5:53 PM 71.1 °F 37.9 °F 30% 30.01 in 10.0 mi North 13.8 mph - N/A   Clear
6:53 PM 64.9 °F 39.0 °F 39% 30.04 in 10.0 mi NNW 10.4 mph - N/A   Clear
7:53 PM 61.0 °F 44.1 °F 54% 30.08 in 10.0 mi NNE 10.4 mph - N/A   Clear
8:53 PM 59.0 °F 42.1 °F 53% 30.12 in 10.0 mi NE 15.0 mph - N/A   Clear
9:53 PM 57.9 °F 42.1 °F 56% 30.13 in 10.0 mi NNE 15.0 mph - N/A   Clear
10:53 PM 57.9 °F 42.1 °F 56% 30.11 in 10.0 mi NNE 15.0 mph - N/A   Mostly Cloudy
11:53 PM 55.0 °F 46.0 °F 72% 30.17 in 10.0 mi East 6.9 mph - 0.01 in Rain Light Rain